Location: Batang Balui
(2.7000°N, 113.7833°E)
Time: 05:59:07
(UTC+00:00)

O/OREOS (USA 219) - Pass Details

Date: 29 March 2023
Orbit: 621 x 646 km, 72.0° (Epoch: 22 May)

Event Time Altitude Azimuth Distance (km) Brightness Sun altitude
Exits shadow 20:34:46 16° 8° (N) 1,656 ? -28.4°
Drops below altitude 10° 20:35:44 10° 9° (N) 2,031 ? -28.2°
Sets 20:38:00 0° 11° (N) 2,936 ? -27.6°
